FW0446 Weather Reports


time (UTC)temp
C
wind
direction
speed
KPH
gust
KPH
rain 1hr
cm
rain 24hr
cm
rain mn
cm
humidity
%
barometer
mb
20260508044104 17 292 4.8 8.0 0.00 0.00 0.00 50 1018.2
20260508043104 17 259 4.8 4.8 0.00 0.00 0.00 48 1017.9
20260508042603 17 270 3.2 3.2 0.00 0.00 0.00 49 1017.9
20260508041105 17 270 0.0 3.2 0.00 0.00 0.00 48 1017.8
20260508040104 17 270 4.8 4.8 0.00 0.00 0.00 47 1017.6
20260508035103 17 248 0.0 0.0 0.00 0.00 0.00 48 1017.5
20260508034603 17 248 0.0 1.6 0.00 0.00 0.00 47 1017.6
20260508034104 17 262 3.2 3.2 0.00 0.00 0.00 47 1017.6
20260508033104 16 270 4.8 4.8 0.00 0.00 0.00 48 1017.7
20260508032103 16 283 1.6 4.8 0.00 0.00 0.00 50 1017.6
20260508031603 16 314 1.6 4.8 0.00 0.00 0.00 48 1017.6
20260508031103 16 262 3.2 8.0 0.00 0.00 0.00 48 1017.6
20260508030604 16 235 1.6 4.8 0.00 0.00 0.00 49 1017.6
20260508030111 16 248 0.0 0.0 0.00 0.00 0.00 50 1017.6
20260508025603 16 152 1.6 4.8 0.00 0.00 0.00 50 1017.7
20260508025104 16 192 1.6 4.8 0.00 0.00 0.00 49 1017.7
20260508024104 16 206 0.0 0.0 0.00 0.00 0.00 51 1017.8
20260508023103 17 248 0.0 3.2 0.00 0.00 0.00 46 1017.7
20260508022604 17 248 3.2 4.8 0.00 0.00 0.00 46 1017.7
20260508022105 17 225 3.2 3.2 0.00 0.00 0.00 46 1017.7
20260508021604 17 210 4.8 4.8 0.00 0.00 0.00 45 1017.7
20260508021111 17 270 3.2 4.8 0.00 0.00 0.00 45 1017.6
20260508020604 17 258 4.8 8.0 0.00 0.00 0.00 45 1017.6
20260508020104 17 251 1.6 8.0 0.00 0.00 0.00 47 1017.8
20260508015604 17 286 1.6 8.0 0.00 0.00 0.00 46 1017.8
20260508015103 17 270 4.8 11.3 0.00 0.00 0.00 45 1017.8
20260508014603 17 267 4.8 4.8 0.00 0.00 0.00 46 1017.9
20260508014104 17 270 4.8 8.0 0.00 0.00 0.00 46 1017.9
20260508013104 17 270 4.8 4.8 0.00 0.00 0.00 47 1018.1
20260508012604 17 270 4.8 4.8 0.00 0.00 0.00 46 1018.1
20260508012104 17 270 4.8 4.8 0.00 0.00 0.00 46 1018.2
20260508011604 17 270 4.8 4.8 0.00 0.00 0.00 46 1018.2
20260508011104 17 270 4.8 4.8 0.00 0.00 0.00 47 1018.4
20260508010603 17 270 4.8 4.8 0.00 0.00 0.00 47 1018.4
20260508004103 17 248 3.2 3.2 0.00 0.00 0.00 45 1018.3
20260508003604 17 248 4.8 8.0 0.00 0.00 0.00 45 1018.4
20260508003105 17 248 3.2 4.8 0.00 0.00 0.00 47 1018.4
20260508002604 17 270 4.8 8.0 0.00 0.00 0.00 46 1018.4
20260508002104 17 270 3.2 4.8 0.00 0.00 0.00 47 1018.4
20260508001603 17 270 4.8 8.0 0.00 0.00 0.00 47 1018.4
20260508000603 16 270 4.8 9.7 0.00 0.00 0.00 51 1018.4
20260508000104 16 249 4.8 8.0 0.00 0.00 0.00 53 1018.5
20260507235603 16 270 4.8 8.0 0.00 0.00 0.00 55 1018.6
20260507235106 16 265 4.8 8.0 0.00 0.00 0.00 58 1018.6
20260507234104 16 249 8.0 9.7 0.00 0.00 0.00 59 1018.8
20260507233604 16 250 8.0 8.0 0.00 0.00 0.00 59 1018.9
20260507233104 16 248 8.0 9.7 0.00 0.00 0.00 58 1018.9
20260507232604 16 248 8.0 8.0 0.00 0.00 0.00 58 1018.9
20260507231603 16 248 6.4 8.0 0.00 0.00 0.00 59 1018.8
20260507231103 16 248 6.4 9.7 0.00 0.00 0.00 60 1019.0
20260507230604 16 248 6.4 9.7 0.00 0.00 0.00 62 1019.0
20260507225604 16 248 3.2 4.8 0.00 0.00 0.00 56 1019.1
20260507225104 16 248 4.8 9.7 0.00 0.00 0.00 59 1019.1
20260507224604 15 248 6.4 8.0 0.00 0.00 0.00 61 1019.1
20260507224106 15 248 4.8 4.8 0.00 0.00 0.00 63 1019.1
20260507223604 15 225 3.2 4.8 0.00 0.00 0.00 64 1019.1
20260507223103 15 256 4.8 4.8 0.00 0.00 0.00 65 1019.1
20260507222604 15 240 4.8 8.0 0.00 0.00 0.00 67 1019.1
20260507222103 15 248 4.8 4.8 0.00 0.00 0.00 68 1019.3
20260507221603 15 248 4.8 8.0 0.00 0.00 0.00 69 1019.3
20260507221104 15 240 3.2 8.0 0.00 0.00 0.00 68 1019.4
20260507220603 15 248 4.8 8.0 0.00 0.00 0.00 68 1019.4
20260507215606 15 248 4.8 8.0 0.00 0.00 0.00 68 1019.6
20260507215105 15 214 3.2 8.0 0.00 0.00 0.00 67 1019.6
20260507214603 15 248 4.8 8.0 0.00 0.00 0.00 66 1019.6
20260507214104 15 225 3.2 4.8 0.00 0.00 0.00 65 1019.6
20260507213603 15 269 4.8 8.0 0.00 0.00 0.00 64 1019.9
20260507213107 16 287 3.2 8.0 0.00 0.00 0.00 63 1019.9
20260507212604 16 277 3.2 8.0 0.00 0.00 0.00 61 1019.9
20260507212104 16 253 4.8 9.7 0.00 0.00 0.00 60 1019.8
20260507211109 16 305 3.2 4.8 0.00 0.00 0.00 59 1019.7
20260507210104 16 270 4.8 9.7 0.00 0.00 0.00 58 1019.7
20260507205604 16 268 3.2 4.8 0.00 0.00 0.00 59 1019.8
20260507205119 16 290 4.8 9.7 0.00 0.00 0.00 59 1019.8
20260507204603 16 272 4.8 8.0 0.00 0.00 0.00 58 1019.8
20260507204103 16 270 4.8 8.0 0.00 0.00 0.00 57 1019.8
20260507203604 16 284 1.6 4.8 0.00 0.00 0.00 60 1019.9
20260507203104 16 237 1.6 8.0 0.00 0.00 0.00 60 1019.9
20260507202603 16 275 3.2 9.7 0.00 0.00 0.00 61 1019.9
20260507202104 16 294 3.2 8.0 0.00 0.00 0.00 62 1019.9
20260507201606 16 283 3.2 8.0 0.00 0.00 0.00 61 1019.9
20260507201105 16 286 3.2 8.0 0.00 0.00 0.00 57 1019.7
20260507200606 16 255 3.2 4.8 0.00 0.00 0.00 57 1019.7
20260507200104 16 270 3.2 4.8 0.00 0.00 0.00 58 1019.7
20260507195103 15 248 1.6 3.2 0.00 0.00 0.00 63 1019.8
20260507194604 15 235 0.0 3.2 0.00 0.00 0.00 66 1019.7
20260507194104 15 248 3.2 3.2 0.00 0.00 0.00 67 1019.7
20260507193605 15 202 0.0 0.0 0.00 0.00 0.00 65 1019.7
20260507193104 15 112 0.0 0.0 0.00 0.00 0.00 64 1019.7
20260507192604 15 22 0.0 0.0 0.00 0.00 0.00 64 1019.7
20260507192109 15 202 0.0 0.0 0.00 0.00 0.00 63 1019.6
20260507191603 15 225 1.6 3.2 0.00 0.00 0.00 63 1019.6
20260507191104 15 251 3.2 4.8 0.00 0.00 0.00 63 1019.7
20260507190604 15 255 4.8 8.0 0.00 0.00 0.00 62 1019.7
20260507190105 15 247 4.8 8.0 0.00 0.00 0.00 62 1019.7
20260507185603 15 262 6.4 9.7 0.00 0.00 0.00 62 1019.7
20260507185103 15 257 8.0 9.7 0.00 0.00 0.00 61 1019.7
20260507184604 16 235 4.8 9.7 0.00 0.00 0.00 61 1019.5
20260507182619 16 223 6.4 9.7 0.00 0.00 0.00 60 1019.4
20260507182103 16 215 4.8 9.7 0.00 0.00 0.00 60 1019.3
20260507181115 16 244 8.0 11.3 0.00 0.00 0.00 61 1019.4
20260507180604 16 189 8.0 11.3 0.00 0.00 0.00 61 1019.4
20260507180105 16 163 8.0 9.7 0.00 0.00 0.00 61 1019.3
20260507175604 16 203 8.0 11.3 0.00 0.00 0.00 61 1019.3
20260507174604 16 158 4.8 8.0 0.00 0.00 0.00 65 1019.4
20260507174106 16 270 4.8 8.0 0.00 0.00 0.00 65 1019.4
20260507173103 16 257 6.4 9.7 0.00 0.00 0.00 64 1019.4
20260507172104 16 277 4.8 8.0 0.00 0.00 0.00 67 1019.2
20260507171604 16 293 4.8 8.0 0.00 0.00 0.00 65 1019.2
20260507171104 17 152 4.8 9.7 0.00 0.00 0.00 63 1018.9
20260507170604 17 210 1.6 4.8 0.00 0.00 0.00 66 1018.9
20260507170104 17 135 1.6 4.8 0.00 0.00 0.00 68 1018.9
20260507165111 17 101 1.6 4.8 0.00 0.00 0.00 66 1018.9
20260507164604 17 112 3.2 3.2 0.00 0.00 0.00 67 1018.9
20260507164103 17 111 4.8 4.8 0.00 0.00 0.00 67 1018.9
20260507163603 17 114 4.8 4.8 0.00 0.00 0.00 67 1019.1
20260507163103 17 189 3.2 4.8 0.00 0.00 0.00 65 1019.1
20260507162104 18 103 3.2 4.8 0.00 0.00 0.00 59 1019.1
20260507161604 18 120 0.0 8.0 0.00 0.00 0.00 57 1019.1
20260507160104 18 123 6.4 9.7 0.00 0.00 0.00 52 1019.2
20260507155604 19 150 6.4 9.7 0.00 0.00 0.00 51 1019.2
20260507155105 19 113 6.4 9.7 0.00 0.00 0.00 51 1019.2
20260507154609 19 131 3.2 4.8 0.00 0.00 0.00 48 1019.3
20260507154106 19 150 4.8 9.7 0.00 0.00 0.00 49 1019.3
20260507153104 20 160 3.2 8.0 0.00 0.00 0.00 45 1019.4
20260507152604 20 178 3.2 4.8 0.00 0.00 0.00 45 1019.4
20260507152103 20 101 3.2 9.7 0.00 0.00 0.00 44 1019.3
20260507151604 20 180 3.2 11.3 0.00 0.00 0.00 42 1019.3
20260507145103 21 194 6.4 14.5 0.00 0.00 0.00 42 1019.3
20260507144604 21 187 6.4 9.7 0.00 0.00 0.00 40 1019.3
20260507144106 21 162 4.8 9.7 0.00 0.00 0.00 38 1019.3
20260507143104 21 112 6.4 9.7 0.00 0.00 0.00 39 1019.3
20260507142604 21 90 4.8 8.0 0.00 0.00 0.00 38 1019.3
20260507142104 21 136 6.4 11.3 0.00 0.00 0.00 39 1019.1
20260507141604 21 127 4.8 9.7 0.00 0.00 0.00 37 1019.1
20260507141104 21 200 4.8 14.5 0.00 0.00 0.00 36 1018.9
20260507140105 22 163 8.0 11.3 0.00 0.00 0.00 37 1018.8
20260507135604 22 37 8.0 12.9 0.00 0.00 0.00 38 1018.8
20260507135103 22 147 4.8 12.9 0.00 0.00 0.00 38 1018.8
20260507134103 22 122 9.7 16.1 0.00 0.00 0.00 41 1018.8
20260507133604 22 147 8.0 11.3 0.00 0.00 0.00 42 1018.7
20260507133111 22 135 9.7 12.9 0.00 0.00 0.00 42 1018.7
20260507132111 22 155 4.8 11.3 0.00 0.00 0.00 43 1018.8
20260507130604 21 137 8.0 16.1 0.00 0.00 0.00 49 1019.0
20260507130104 21 146 6.4 12.9 0.00 0.00 0.00 48 1019.1
20260507125606 21 133 9.7 12.9 0.00 0.00 0.00 47 1019.3
20260507125103 21 122 4.8 8.0 0.00 0.00 0.00 46 1019.3
20260507124104 21 149 9.7 14.5 0.00 0.00 0.00 45 1019.2
20260507123603 22 130 9.7 14.5 0.00 0.00 0.00 44 1019.3
20260507122111 23 121 11.3 16.1 0.00 0.00 0.00 43 1019.4
20260507121107 22 135 11.3 16.1 0.00 0.00 0.00 42 1019.3
20260507120603 22 134 11.3 16.1 0.00 0.00 0.00 42 1019.3
20260507120104 23 112 11.3 16.1 0.00 0.00 0.00 40 1019.4
20260507115607 23 170 8.0 12.9 0.00 0.00 0.00 37 1019.4
20260507115104 23 134 11.3 12.9 0.00 0.00 0.00 35 1019.4
20260507114604 23 96 9.7 16.1 0.00 0.00 0.00 35 1019.5
20260507114104 23 125 11.3 14.5 0.00 0.00 0.00 34 1019.5
20260507113604 23 128 14.5 24.1 0.00 0.00 0.00 34 1019.7
20260507112604 24 122 8.0 16.1 0.00 0.00 0.00 36 1019.7
20260507112103 23 127 11.3 16.1 0.00 0.00 0.00 36 1019.4
20260507111604 23 145 11.3 16.1 0.00 0.00 0.00 36 1019.4
20260507111103 23 113 14.5 22.5 0.00 0.00 0.00 52 1019.5
20260507110603 23 161 9.7 16.1 0.00 0.00 0.00 51 1019.5
20260507110104 23 143 12.9 16.1 0.00 0.00 0.00 58 1019.4
20260507105106 22 120 9.7 14.5 0.00 0.00 0.00 68 1019.4
20260507104604 22 114 12.9 19.3 0.00 0.00 0.00 66 1019.1
20260507104104 22 115 14.5 19.3 0.00 0.00 0.00 62 1019.1
20260507103604 22 136 9.7 16.1 0.00 0.00 0.00 59 1019.1
20260507103103 22 125 14.5 20.9 0.00 0.00 0.00 55 1019.1
20260507102620 22 135 9.7 16.1 0.00 0.00 0.00 61 1019.1
20260507101604 22 113 8.0 12.9 0.00 0.00 0.00 62 1019.3
20260507101104 21 120 8.0 11.3 0.00 0.00 0.00 72 1019.2
20260507100609 22 99 11.3 12.9 0.00 0.00 0.00 73 1019.2
20260507100104 21 122 9.7 16.1 0.00 0.00 0.00 75 1019.2
20260507095104 21 112 11.3 14.5 0.00 0.00 0.00 78 1019.2
20260507094604 21 67 9.7 12.9 0.00 0.00 0.00 79 1019.3
20260507094104 21 121 12.9 16.1 0.00 0.00 0.00 78 1019.3
20260507093604 21 112 9.7 12.9 0.00 0.00 0.00 79 1019.2
20260507093111 21 95 8.0 12.9 0.00 0.00 0.00 78 1019.2
20260507092603 21 125 9.7 12.9 0.00 0.00 0.00 77 1019.2
20260507092104 21 86 9.7 12.9 0.00 0.00 0.00 77 1019.1
20260507091603 21 111 4.8 9.7 0.00 0.00 0.00 76 1019.1
20260507091105 20 134 9.7 14.5 0.00 0.00 0.00 77 1019.1
20260507090604 20 128 11.3 16.1 0.00 0.00 0.00 75 1019.1
20260507090105 20 112 12.9 16.1 0.00 0.00 0.00 77 1019.1
20260507085103 20 95 9.7 14.5 0.00 0.00 0.00 75 1019.2
20260507084105 21 79 8.0 12.9 0.00 0.00 0.00 74 1019.2
20260507083604 20 123 9.7 14.5 0.00 0.00 0.00 74 1019.1
20260507083103 21 112 11.3 14.5 0.00 0.00 0.00 74 1019.1
20260507082604 21 112 11.3 14.5 0.00 0.00 0.00 73 1019.1
20260507082103 21 96 8.0 11.3 0.00 0.00 0.00 64 1019.1
20260507081604 21 112 9.7 12.9 0.00 0.00 0.00 63 1019.1
20260507081111 21 125 9.7 11.3 0.00 0.00 0.00 63 1019.0
20260507080603 21 125 4.8 9.7 0.00 0.00 0.00 62 1019.0
20260507080111 21 122 4.8 8.0 0.00 0.00 0.00 64 1019.0
20260507075619 21 130 8.0 12.9 0.00 0.00 0.00 60 1018.9
20260507075104 20 135 6.4 11.3 0.00 0.00 0.00 62 1018.9
20260507074103 20 112 9.7 12.9 0.00 0.00 0.00 63 1018.7
20260507073604 20 72 11.3 12.9 0.00 0.00 0.00 63 1018.7
20260507073104 21 122 9.7 14.5 0.00 0.00 0.00 61 1018.7
20260507072604 21 131 8.0 9.7 0.00 0.00 0.00 59 1018.7
20260507072104 21 121 9.7 12.9 0.00 0.00 0.00 59 1018.8
20260507070619 21 112 9.7 11.3 0.00 0.00 0.00 63 1018.9
20260507065103 21 119 8.0 9.7 0.00 0.00 0.00 66 1018.8
20260507064106 21 118 6.4 8.0 0.00 0.00 0.00 59 1018.8
20260507063606 20 141 3.2 9.7 0.00 0.00 0.00 62 1018.8
20260507063104 20 139 6.4 9.7 0.00 0.00 0.00 69 1018.8
20260507062104 19 123 8.0 11.3 0.00 0.00 0.00 65 1018.7
20260507061603 19 110 8.0 9.7 0.00 0.00 0.00 68 1018.7
20260507060603 19 135 11.3 12.9 0.00 0.00 0.00 63 1018.5
20260507055103 21 90 4.8 8.0 0.00 0.00 0.00 53 1018.2
20260507054604 20 93 4.8 9.7 0.00 0.00 0.00 53 1018.1
20260507054104 21 116 4.8 9.7 0.00 0.00 0.00 53 1018.1
20260507053611 21 89 4.8 4.8 0.00 0.00 0.00 51 1018.1
20260507053104 21 103 4.8 8.0 0.00 0.00 0.00 50 1018.1
20260507052105 21 115 1.6 3.2 0.00 0.00 0.00 51 1018.0
20260507051604 20 112 3.2 4.8 0.00 0.00 0.00 51 1018.0
20260507051104 21 100 4.8 4.8 0.00 0.00 0.00 52 1018.1
20260507050606 22 16 4.8 4.8 0.00 0.00 0.00 50 1018.1
20260507050104 20 110 0.0 0.0 0.00 0.00 0.00 57 1018.0
20260507045605 20 90 0.0 0.0 0.00 0.00 0.00 56 1017.9
20260507044611 20 112 0.0 0.0 0.00 0.00 0.00 55 1017.8